Spokane, WA

3:26 PM PDT on June 22, 2017 (GMT -0700)
Spokane International

Weather History for KGEG - May, 2012

Change the Weather History Date:

Thursday, May 17, 2012

  Actual Average Record
Temperature  
Mean Temperature 57 °F 56 °F  
Max Temperature 68 °F 67 °F 92 °F (2006)
Min Temperature 46 °F 44 °F 27 °F (1966)
Degree Days  
Heating Degree Days 8 10  
Month to date heating degree days 212 206  
Since 1 July heating degree days 6194 6342  
Cooling Degree Days 0 0  
Month to date cooling degree days 8 0  
Year to date cooling degree days 10 0  
Growing Degree Days 7 (Base 50)    
Moisture  
Dew Point 32 °F    
Average Humidity 44    
Maximum Humidity 65    
Minimum Humidity 22    
Precipitation  
Precipitation 0.00 in 0.05 in 0.90 in (1998)
Month to date precipitation 0.41 0.80  
Year to date precipitation 9.85 6.81  
Snow  
Snow 0.00 in 0.00 in T in (2003)
Month to date snowfall 0.0 0.1  
Since 1 July snowfall 36.8 44.9  
Snow Depth 0.00 in    
Sea Level Pressure  
Sea Level Pressure 29.81 in    
Wind  
Wind Speed 11 mph (SW)    
Max Wind Speed 21 mph    
Max Gust Speed 29 mph    
Visibility 10 miles    
Events      
T = Trace of Precipitation, MM = Missing Value Source: NWS Daily Summary

Daily Weather History Graph

Daily Weather History Graph

Search for Another Location

Airport or City:

Trip Planner

Search our weather history database for the weather conditions in past years. The results will help you decide how hot, cold, wet, or windy it might be!

Date:

Astronomy

May. 17, 2012 Rise Set
Actual Time 5:09 AM PDT 8:24 PM PDT
Civil Twilight 4:32 AM PDT 9:01 PM PDT
Nautical Twilight 3:44 AM PDT 9:50 PM PDT
Astronomical Twilight 2:43 AM PDT 10:52 PM PDT
Moon 3:21 AM PDT (5/17) 5:32 PM PDT (5/17)
Length of Visible Light 16h 29m
Length of Day
15h 14m
Waning Crescent, 9% of the Moon is Illuminated
May 17
Waning Crescent
May 20
New
May 28
First Quarter
Jun 4
Full
Jun 11
Last Quarter

Hourly Weather History & Observations

Time (PDT) Temp. Windchill Dew Point Humidity Pressure Visibility Wind Dir Wind Speed Gust Speed Precip Events Conditions
12:53 AM 54.0 °F - 35.1 °F 49% 29.81 in 10.0 mi WSW 8.1 mph - N/A   Mostly Cloudy
1:53 AM 53.1 °F - 35.1 °F 50% 29.81 in 10.0 mi SW 10.4 mph - N/A   Mostly Cloudy
2:53 AM 51.1 °F - 35.1 °F 54% 29.83 in 10.0 mi SSW 9.2 mph - N/A   Mostly Cloudy
3:53 AM 48.9 °F - 36.0 °F 61% 29.84 in 10.0 mi SSW 11.5 mph - N/A   Mostly Cloudy
4:53 AM 46.9 °F - 36.0 °F 66% 29.84 in 10.0 mi SSW 9.2 mph - N/A   Scattered Clouds
5:53 AM 46.0 °F 41.9 °F 36.0 °F 68% 29.84 in 10.0 mi South 8.1 mph - N/A   Partly Cloudy
6:53 AM 48.0 °F - 36.0 °F 63% 29.85 in 10.0 mi SW 11.5 mph - N/A   Partly Cloudy
7:53 AM 51.1 °F - 37.0 °F 59% 29.84 in 10.0 mi SSE 4.6 mph - N/A   Scattered Clouds
8:53 AM 53.1 °F - 37.0 °F 55% 29.86 in 10.0 mi SSW 5.8 mph - N/A   Scattered Clouds
9:53 AM 57.0 °F - 37.9 °F 49% 29.85 in 10.0 mi SW 8.1 mph - N/A   Scattered Clouds
10:53 AM 60.1 °F - 37.0 °F 42% 29.84 in 10.0 mi South 9.2 mph 16.1 mph N/A   Mostly Cloudy
11:53 AM 62.1 °F - 37.0 °F 39% 29.83 in 10.0 mi SSW 8.1 mph - N/A   Mostly Cloudy
12:53 PM 64.0 °F - 28.9 °F 27% 29.81 in 10.0 mi West 12.7 mph - N/A   Mostly Cloudy
1:53 PM 66.9 °F - 30.0 °F 25% 29.80 in 10.0 mi SW 12.7 mph 21.9 mph N/A   Mostly Cloudy
2:53 PM 66.9 °F - 26.1 °F 21% 29.79 in 10.0 mi West 19.6 mph 23.0 mph N/A   Mostly Cloudy
3:53 PM 66.9 °F - 27.0 °F 22% 29.78 in 10.0 mi WSW 11.5 mph 20.7 mph N/A   Mostly Cloudy
4:53 PM 64.9 °F - 25.0 °F 22% 29.78 in 10.0 mi SW 13.8 mph - N/A   Mostly Cloudy
5:53 PM 66.0 °F - 28.0 °F 24% 29.77 in 10.0 mi WSW 11.5 mph 20.7 mph N/A   Scattered Clouds
6:53 PM 64.0 °F - 28.9 °F 27% 29.76 in 10.0 mi SSW 15.0 mph - N/A   Scattered Clouds
7:53 PM 62.1 °F - 27.0 °F 26% 29.76 in 10.0 mi SSW 12.7 mph - N/A   Scattered Clouds
8:53 PM 59.0 °F - 26.1 °F 28% 29.77 in 10.0 mi SSW 12.7 mph - N/A   Scattered Clouds
9:53 PM 55.9 °F - 27.0 °F 33% 29.78 in 10.0 mi WSW 13.8 mph - N/A   Scattered Clouds
10:53 PM 50.0 °F - 28.0 °F 43% 29.78 in 10.0 mi WSW 9.2 mph - N/A   Partly Cloudy
11:53 PM 48.0 °F - 25.0 °F 41% 29.79 in 10.0 mi SW 11.5 mph - N/A   Partly Cloudy